Location: Brede
(50.9167°N, 0.6000°E)
Time: 09:37:13
(UTC+00:00)

Tiros 1 - Pass Details

Date: 01 December 2020
Orbit: 630 x 663 km, 48.4° (Epoch: 16 January)

Event Time Altitude Azimuth Distance (km) Brightness Sun altitude
Rises 17:42:51 0° 270° (W) 2,994 12.1 -16.2°
Reaches altitude 10° 17:45:14 10° 268° (W) 2,078 11.0 -16.6°
Maximum altitude 17:49:58 62° 188° (S) 739 7.5 -17.3°
Enters shadow 17:52:29 27° 116° (ESE) 1,271 8.2 -17.7°
